This demonstration page uses our WeatherBlox Daily Observations layout. Learn more.

38.89511, -77.03637

Hourly Observations for August 11, 2015

Temp ( °F °C ) Dew Point ( °F °C ) Humidity (%) Winds ( mph kmh ) Pressure ( in mb ) Visibility ( mi km ) Precip ( " mm )
12:48 am 00:48 Cloudy with Light Rain 73 23 72 22 94 94 S 12 19 29.88 1012 10 16.09344 0 0
12:52 am 00:52 Cloudy with Light Rain 73 23 72 22 94 94 S 15 24 29.88 1012 10 16.09344 0.01 0.254
1:52 am 01:52 Cloudy 73 23 72 22 94 94 S 15 24 29.88 1012 10 16.09344 0.001 0.001
2:27 am 02:27 Cloudy with Heavy Rain 73 23 72 22 94 94 S 12 19 29.85 1011 2 3.218688 0.03 0.762
2:32 am 02:32 Cloudy with Heavy Rain 73 23 72 22 94 94 S 13 20 29.85 1011 3 4.828032 0 0
2:45 am 02:45 Cloudy with Light Rain 73 23 72 22 94 94 S 13 20 29.85 1011 6 9.656064 0.28 7.112
2:52 am 02:52 Cloudy with Light Rain 73 23 72 22 94 94 S 13 20 29.85 1011 6 9.656064 0.3 7.62
3:10 am 03:10 Cloudy 73 23 72 22 94 94 S 15 24 29.83 1010 10 16.09344 0 0
3:52 am 03:52 Cloudy 73 23 72 22 94 94 S 15 24 29.83 1010 10 16.09344 0.001 0.001
4:13 am 04:13 Cloudy 73 23 72 22 94 94 S 15 24 29.8 1009 10 16.09344 0 0
4:31 am 04:31 Cloudy 73 23 72 22 94 94 S 13 20 29.8 1009 10 16.09344 0 0
4:52 am 04:52 Cloudy 73 23 72 22 94 94 S 14 22 29.77 1008 10 16.09344 0 0
5:52 am 05:52 Cloudy with Light Rain 73 23 72 22 94 94 SSW 15 24 29.83 1010 10 16.09344 0.001 0.001
6:52 am 06:52 Cloudy with Light Rain 73 23 72 22 94 94 SW 8 13 29.83 1010 6 9.656064 0.04 1.016
7:52 am 07:52 Cloudy 73 23 72 22 94 94 SSW 9 15 29.83 1010 10 16.09344 0.001 0.001
8:52 am 08:52 Cloudy 75 24 72 22 89 89 SW 9 15 29.83 1010 10 16.09344 0 0
9:52 am 09:52 Mostly Cloudy 79 26 72 22 79 79 SSW 8 13 29.83 1010 10 16.09344 0 0
10:52 am 10:52 Partly Cloudy 81 27 72 22 74 74 S 6 9 29.83 1010 10 16.09344 0 0
11:04 am 11:04 Mostly Cloudy 81 27 73 23 79 79 S 9 15 29.83 1010 10 16.09344 0 0
11:43 am 11:43 Partly Cloudy 82 28 73 23 74 74 SSW 8 13 29.83 1010 10 16.09344 0 0
11:52 am 11:52 Partly Cloudy 84 29 72 22 66 66 SW 8 13 29.8 1009 10 16.09344 0 0
12:52 pm 12:52 Mostly Cloudy 88 31 72 22 59 59 W 9 15 29.8 1009 10 16.09344 0 0
1:52 pm 13:52 Mostly Cloudy 88 31 68 20 52 52 WNW 9 15 29.8 1009 10 16.09344 0 0
2:52 pm 14:52 Mostly Cloudy 90 32 68 20 49 49 SW 10 17 29.77 1008 10 16.09344 0 0
3:00 pm 15:00 Mostly Cloudy 88 31 66 19 49 49 NW 17 28 29.8 1009 10 16.09344 0 0
3:11 pm 15:11 Mostly Cloudy 84 29 68 20 58 58 NNW 18 30 29.8 1009 10 16.09344 0 0
3:19 pm 15:19 Mostly Cloudy with Light Rain 82 28 68 20 62 62 NNW 13 20 29.8 1009 10 16.09344 0.001 0.001
3:34 pm 15:34 Mostly Cloudy 84 29 66 19 55 55 WNW 8 13 29.77 1008 10 16.09344 0 0
3:52 pm 15:52 Mostly Cloudy 88 31 66 19 49 49 NW 12 19 29.77 1008 10 16.09344 0.001 0.001
4:52 pm 16:52 Mostly Cloudy 88 31 66 19 49 49 NW 12 19 29.74 1007 10 16.09344 0 0
5:52 pm 17:52 Mostly Cloudy 88 31 66 19 49 49 NNW 10 17 29.77 1008 10 16.09344 0 0
6:52 pm 18:52 Mostly Cloudy 88 31 66 19 49 49 NW 7 11 29.77 1008 10 16.09344 0 0
7:52 pm 19:52 Mostly Cloudy 88 31 64 18 46 46 NW 10 17 29.8 1009 10 16.09344 0 0
8:52 pm 20:52 Mostly Cloudy 81 27 72 22 74 74 ESE 6 9 29.8 1009 10 16.09344 0 0
9:52 pm 21:52 Cloudy 79 26 72 22 79 79 SSW 3 6 29.85 1011 10 16.09344 0 0
10:52 pm 22:52 Cloudy 77 25 70 21 79 79 SSW 5 7 29.85 1011 10 16.09344 0 0
11:52 pm 23:52 Mostly Cloudy 75 24 70 21 83 83 Calm 29.85 1011 10 16.09344 0 0

Powered by AerisWeather